Temp
-10 -10 -10 -10 -11 -11 -11 -11 -11 -12 -12 -12 -12 -12 -12 -12 -12 -12 -12 -12 -12 -12 -12 -12 -12 -12 -12 -12 -12 -13 -13 -12 -12 -12 -13 -13 -13 -13 -13 -13 -13 -13 -13 -13 -13
-11 -11 -11 -11 -11 -11 -12 -12 -12 -12 -12 -12 -12 -12 -12 -12 -12 -12 -12 -12 -12 -12 -12 -12 -12 -12 -12 -13 -13 -13 -13 -13 -13 -13 -13 -13 -13 -13 -13 -13 -14 -13 -13 -13 -13
-11 -11 -11 -11 -11 -12 -12 -12 -13 -13 -13 -13 -13 -13 -13 -12 -12 -12 -12 -12 -12 -12 -12 -12 -12 -13 -13 -13 -13 -13 -13 -14 -14 -14 -14 -14 -14 -14 -14 -13 -14 -14 -14 -13 -13
-11 -11 -11 -11 -12 -12 -12 -12 -13 -13 -13 -13 -13 -13 -13 -13 -13 -13 -12 -12 -13 -12 -12 -12 -13 -13 -13 -13 -14 -14 -14 -14 -14 -14 -14 -14 -14 -14 -14 -14 -14 -14 -14 -14 -14
-12 -12 -12 -12 -12 -12 -12 -12 -12 -13 -13 -13 -13 -13 -13 -13 -13 -13 -13 -13 -12 -13 -13 -13 -13 -13 -14 -14 -14 -14 -14 -14 -14 -15 -15 -16 -15 -15 -15 -14 -15 -15 -15 -14 -14
-12 -12 -12 -12 -12 -12 -12 -13 -13 -13 -13 -13 -13 -13 -13 -13 -13 -13 -13 -13 -13 -13 -13 -14 -14 -14 -14 -14 -14 -14 -15 -16 -17 -20 -21 -21 -20 -19 -15 -15 -15 -15 -15 -15 -15
-12 -12 -12 -12 -12 -12 -12 -13 -13 -13 -13 -13 -13 -13 -13 -13 -13 -13 -13 -13 -13 -14 -14 -15 -15 -15 -15 -15 -15 -16 -18 -21 -22 -22 -22 -23 -21 -21 -20 -19 -16 -16 -16 -16 -16
-13 -13 -13 -13 -13 -13 -13 -13 -13 -13 -13 -13 -13 -13 -13 -14 -14 -14 -14 -14 -14 -15 -15 -15 -15 -15 -16 -16 -17 -21 -22 -22 -23 -24 -24 -24 -23 -23 -22 -21 -19 -17 -17 -16 -16
-13 -13 -13 -13 -14 -13 -13 -14 -14 -14 -14 -14 -14 -14 -14 -14 -14 -14 -14 -15 -15 -16 -15 -16 -16 -16 -17 -19 -22 -22 -23 -23 -23 -25 -26 -25 -23 -24 -24 -22 -21 -20 -18 -17 -16
-13 -13 -14 -14 -14 -14 -14 -14 -14 -14 -14 -14 -14 -14 -14 -14 -15 -15 -16 -16 -16 -16 -17 -17 -17 -18 -21 -23 -23 -23 -23 -23 -24 -25 -25 -25 -24 -25 -25 -24 -23 -22 -19 -18 -17
-13 -13 -14 -14 -14 -14 -15 -14 -14 -14 -14 -15 -15 -15 -15 -15 -15 -16 -16 -16 -17 -17 -17 -17 -18 -21 -24 -24 -24 -23 -24 -23 -25 -25 -24 -25 -26 -26 -26 -25 -24 -22 -21 -19 -17
-13 -14 -14 -14 -14 -14 -14 -14 -14 -15 -15 -15 -15 -15 -15 -15 -16 -17 -17 -17 -17 -17 -18 -19 -21 -23 -24 -24 -24 -24 -24 -24 -24 -25 -25 -25 -26 -26 -26 -26 -23 -22 -22 -20 -19
-14 -14 -14 -14 -14 -14 -14 -14 -15 -15 -15 -15 -15 -15 -16 -16 -16 -17 -17 -17 -18 -18 -18 -20 -23 -24 -24 -24 -24 -25 -24 -23 -24 -24 -25 -25 -26 -26 -26 -26 -23 -22 -22 -20 -19
-14 -14 -14 -14 -14 -14 -15 -15 -15 -15 -15 -15 -16 -16 -16 -17 -17 -17 -17 -18 -18 -18 -19 -22 -24 -24 -24 -24 -25 -25 -24 -24 -24 -24 -24 -24 -25 -25 -25 -25 -24 -23 -21 -19 -19
-14 -14 -14 -14 -14 -15 -15 -15 -15 -15 -15 -16 -16 -17 -17 -17 -17 -17 -18 -18 -18 -19 -21 -23 -25 -24 -25 -25 -25 -24 -24 -24 -24 -24 -24 -24 -24 -25 -25 -24 -23 -22 -21 -19 -20
-14 -15 -15 -15 -15 -15 -15 -15 -15 -16 -16 -17 -17 -17 -18 -18 -18 -18 -18 -19 -19 -20 -22 -25 -25 -25 -25 -25 -24 -24 -24 -24 -24 -24 -24 -24 -24 -24 -24 -24 -23 -22 -21 -20 -18
-15 -15 -15 -15 -16 -16 -16 -16 -16 -17 -17 -17 -18 -18 -17 -18 -18 -18 -19 -19 -19 -20 -24 -25 -25 -25 -24 -25 -25 -24 -24 -23 -23 -23 -24 -23 -24 -24 -23 -23 -23 -23 -22 -21 -21
-15 -15 -15 -16 -16 -16 -16 -17 -17 -17 -18 -18 -18 -18 -18 -18 -18 -19 -19 -20 -21 -23 -25 -25 -25 -25 -25 -24 -24 -24 -24 -24 -24 -24 -24 -23 -23 -23 -23 -22 -23 -23 -23 -22 -21
-15 -15 -16 -16 -16 -17 -17 -17 -18 -18 -18 -18 -18 -18 -18 -18 -18 -19 -20 -20 -21 -24 -25 -26 -26 -25 -25 -25 -25 -24 -24 -24 -24 -23 -23 -23 -23 -23 -23 -23 -22 -22 -22 -22 -22
-16 -16 -16 -17 -17 -17 -17 -18 -18 -18 -18 -18 -18 -18 -18 -18 -19 -20 -20 -21 -22 -24 -26 -26 -26 -25 -25 -25 -25 -25 -24 -24 -24 -24 -23 -24 -23 -23 -23 -23 -23 -22 -22 -22 -22
-16 -17 -17 -17 -17 -17 -18 -18 -18 -18 -18 -18 -18 -18 -18 -19 -20 -21 -21 -22 -24 -26 -26 -26 -26 -26 -25 -25 -25 -25 -24 -24 -24 -24 -24 -24 -24 -24 -24 -24 -23 -23 -23 -23 -22
-16 -17 -17 -17 -17 -18 -18 -18 -18 -18 -18 -18 -18 -18 -19 -19 -21 -21 -21 -22 -24 -26 -27 -27 -26 -26 -26 -25 -25 -25 -25 -24 -24 -24 -24 -24 -24 -24 -24 -24 -23 -24 -23 -23 -23
-17 -17 -18 -18 -18 -18 -18 -18 -18 -18 -18 -18 -19 -19 -19 -20 -21 -21 -22 -22 -24 -26 -27 -27 -26 -26 -26 -26 -25 -25 -25 -25 -24 -24 -24 -24 -24 -23 -23 -24 -24 -23 -23 -23 -23
-17 -18 -18 -18 -19 -19 -19 -19 -19 -19 -19 -19 -19 -19 -20 -21 -21 -22 -22 -23 -25 -26 -26 -26 -26 -26 -26 -26 -26 -25 -25 -25 -25 -24 -24 -24 -24 -24 -24 -23 -23 -23 -23 -23 -23
-19 -18 -19 -19 -19 -19 -19 -19 -19 -19 -19 -19 -19 -19 -20 -21 -22 -22 -23 -24 -25 -26 -26 -26 -26 -26 -26 -26 -26 -25 -25 -25 -25 -25 -24 -24 -24 -24 -24 -23 -23 -23 -23 -22 -22
-19 -19 -19 -19 -19 -19 -19 -19 -19 -19 -19 -19 -19 -20 -20 -21 -22 -22 -23 -24 -25 -26 -26 -26 -26 -26 -26 -25 -25 -26 -25 -25 -25 -25 -25 -24 -24 -24 -24 -23 -23 -23 -23 -23 -22
-19 -19 -19 -19 -19 -19 -19 -19 -19 -19 -19 -19 -20 -20 -20 -21 -22 -22 -23 -24 -25 -26 -26 -26 -26 -26 -26 -25 -25 -25 -25 -25 -25 -25 -25 -25 -24 -24 -24 -24 -23 -23 -23 -23 -23
Height
5820 5817 5815 5812 5809 5806 5803 5801 5798 5795 5792 5790 5788 5785 5783 5780 5777 5775 5772 5769 5766 5764 5762 5759 5757 5754 5751 5748 5746 5744 5742 5742 5741 5740 5740 5739 5744 5748 5753 5756 5760 5762 5765 5769 5771
5815 5812 5809 5806 5804 5801 5798 5795 5792 5789 5786 5784 5781 5778 5775 5772 5769 5767 5764 5761 5758 5755 5753 5750 5746 5742 5740 5736 5732 5728 5727 5725 5724 5722 5722 5724 5726 5731 5737 5742 5746 5749 5752 5758 5763
5811 5807 5805 5802 5799 5796 5793 5789 5786 5784 5780 5777 5775 5772 5768 5765 5762 5758 5755 5752 5749 5746 5743 5739 5735 5731 5726 5721 5716 5711 5710 5707 5703 5701 5700 5703 5706 5709 5718 5726 5729 5734 5739 5745 5751
5806 5803 5800 5797 5795 5791 5788 5784 5780 5777 5774 5770 5767 5764 5760 5757 5755 5749 5745 5742 5739 5735 5731 5726 5721 5716 5711 5706 5700 5695 5690 5685 5682 5676 5673 5674 5678 5687 5694 5706 5709 5717 5723 5731 5739
5803 5799 5796 5793 5790 5787 5783 5779 5775 5771 5767 5764 5761 5757 5754 5750 5746 5741 5737 5733 5729 5723 5717 5712 5705 5700 5693 5687 5681 5674 5670 5662 5651 5646 5639 5638 5646 5653 5669 5681 5687 5695 5707 5716 5725
5799 5795 5791 5788 5785 5782 5777 5773 5769 5765 5761 5757 5754 5750 5746 5743 5738 5733 5728 5722 5717 5710 5702 5697 5690 5683 5677 5668 5660 5651 5644 5634 5624 5615 5609 5605 5608 5607 5640 5650 5662 5676 5688 5699 5709
5797 5793 5789 5785 5781 5777 5773 5768 5764 5759 5755 5752 5748 5744 5739 5735 5729 5724 5717 5711 5705 5698 5690 5682 5674 5666 5659 5649 5638 5626 5619 5611 5607 5599 5594 5584 5587 5595 5602 5616 5634 5651 5667 5682 5694
5794 5790 5786 5782 5777 5772 5769 5763 5758 5754 5749 5745 5742 5737 5731 5725 5720 5713 5706 5697 5691 5683 5676 5668 5659 5649 5639 5628 5617 5608 5601 5599 5595 5586 5578 5568 5574 5582 5585 5591 5609 5628 5646 5664 5679
5791 5788 5783 5778 5773 5768 5763 5759 5754 5749 5743 5739 5735 5729 5723 5717 5709 5702 5695 5687 5678 5671 5662 5653 5644 5632 5619 5609 5601 5595 5590 5586 5584 5575 5565 5559 5561 5571 5567 5571 5588 5607 5628 5647 5663
5787 5783 5779 5774 5769 5763 5758 5753 5749 5745 5739 5733 5728 5723 5715 5708 5700 5691 5683 5677 5667 5657 5649 5639 5627 5616 5605 5598 5593 5586 5582 5577 5570 5563 5555 5552 5550 5554 5556 5555 5571 5592 5613 5633 5651
5783 5779 5774 5769 5764 5759 5753 5748 5744 5739 5733 5727 5721 5714 5706 5698 5690 5681 5673 5665 5656 5647 5635 5624 5613 5604 5597 5591 5585 5579 5573 5566 5562 5553 5548 5544 5540 5543 5543 5544 5563 5581 5600 5619 5638
5777 5773 5768 5763 5757 5752 5747 5741 5736 5731 5725 5720 5714 5706 5698 5689 5682 5672 5665 5656 5646 5636 5624 5612 5604 5597 5593 5585 5578 5571 5565 5561 5558 5553 5546 5540 5536 5533 5533 5542 5558 5576 5594 5609 5630
5771 5767 5762 5757 5751 5746 5740 5735 5729 5723 5719 5713 5705 5698 5690 5682 5674 5666 5657 5646 5636 5625 5615 5604 5597 5592 5587 5580 5572 5565 5561 5559 5556 5551 5544 5539 5533 5530 5534 5542 5555 5572 5589 5607 5622
5765 5760 5755 5750 5746 5739 5733 5728 5722 5717 5711 5705 5697 5689 5682 5673 5667 5657 5647 5638 5629 5618 5606 5598 5592 5588 5582 5575 5567 5563 5560 5559 5556 5550 5544 5539 5539 5537 5539 5546 5559 5574 5590 5608 5617
5759 5754 5748 5741 5737 5732 5727 5721 5715 5710 5704 5699 5690 5683 5675 5668 5658 5650 5642 5630 5620 5609 5600 5594 5588 5584 5580 5575 5569 5564 5562 5560 5557 5552 5548 5545 5543 5543 5544 5551 5562 5573 5590 5601 5614
5752 5747 5740 5735 5730 5726 5720 5715 5709 5704 5698 5693 5685 5677 5669 5661 5653 5643 5634 5624 5613 5602 5593 5589 5586 5583 5579 5574 5570 5566 5564 5561 5558 5555 5552 5549 5548 5549 5552 5559 5567 5578 5589 5596 5610
5745 5740 5733 5729 5724 5719 5714 5710 5705 5699 5695 5689 5681 5673 5665 5655 5645 5636 5628 5619 5609 5600 5591 5586 5583 5581 5578 5575 5571 5568 5565 5563 5561 5558 5554 5552 5552 5554 5558 5565 5573 5580 5584 5591 5599
5737 5732 5727 5722 5718 5713 5708 5705 5700 5696 5689 5682 5674 5667 5659 5650 5640 5629 5620 5611 5600 5592 5586 5584 5582 5580 5576 5575 5572 5569 5567 5564 5561 5560 5558 5557 5558 5560 5563 5566 5574 5579 5586 5589 5598
5730 5726 5721 5717 5713 5709 5705 5700 5695 5690 5685 5677 5670 5662 5653 5644 5635 5625 5615 5605 5597 5589 5585 5582 5580 5577 5575 5573 5573 5571 5569 5568 5564 5562 5562 5563 5562 5565 5569 5574 5578 5583 5586 5593 5599
5723 5719 5716 5712 5708 5705 5701 5696 5691 5685 5679 5672 5665 5658 5648 5639 5630 5620 5610 5602 5593 5587 5583 5581 5579 5577 5575 5573 5572 5571 5570 5569 5565 5564 5564 5564 5566 5567 5570 5575 5580 5584 5589 5593 5598
5717 5714 5711 5708 5704 5700 5696 5691 5686 5680 5674 5668 5660 5652 5645 5636 5625 5617 5608 5600 5591 5585 5582 5580 5579 5577 5575 5573 5572 5572 5570 5570 5569 5567 5566 5567 5569 5569 5573 5576 5580 5584 5588 5592 5598
5712 5710 5707 5703 5702 5696 5691 5686 5682 5675 5670 5664 5657 5649 5641 5632 5623 5614 5605 5596 5589 5584 5582 5579 5578 5576 5575 5573 5572 5572 5572 5571 5571 5571 5569 5571 5572 5573 5575 5578 5581 5584 5588 5591 5595
5707 5705 5702 5699 5695 5691 5686 5681 5677 5671 5665 5659 5652 5645 5636 5628 5621 5612 5603 5595 5588 5584 5582 5580 5579 5577 5575 5575 5573 5572 5572 5572 5572 5572 5572 5573 5574 5575 5577 5579 5582 5585 5588 5591 5594
5701 5698 5696 5693 5690 5686 5681 5676 5671 5666 5661 5655 5648 5640 5632 5624 5617 5609 5600 5593 5587 5584 5582 5581 5578 5577 5576 5574 5574 5573 5572 5572 5573 5574 5574 5575 5575 5577 5579 5581 5583 5585 5587 5591 5594
5696 5693 5689 5687 5683 5680 5675 5671 5666 5662 5657 5651 5644 5637 5629 5622 5614 5607 5599 5591 5586 5584 5582 5581 5578 5577 5576 5575 5574 5573 5572 5572 5573 5573 5575 5577 5577 5578 5580 5582 5583 5585 5587 5589 5592
5689 5686 5683 5681 5677 5673 5669 5665 5661 5657 5653 5647 5640 5633 5625 5619 5612 5605 5597 5590 5586 5584 5582 5580 5578 5576 5575 5574 5574 5573 5572 5572 5572 5573 5574 5576 5577 5578 5579 5580 5582 5584 5586 5588 5590
5680 5679 5676 5675 5670 5667 5664 5660 5656 5652 5648 5642 5636 5629 5622 5616 5609 5602 5595 5589 5585 5584 5581 5579 5576 5574 5574 5573 5573 5573 5572 5572 5572 5572 5573 5575 5576 5577 5578 5579 5580 5580 5582 5583 5584
Wind_Speed
30 33 34 33 32 32 32 31 32 32 30 29 28 30 32 33 35 35 36 37 36 35 37 39 41 43 45 49 52 55 57 55 57 58 58 59 56 54 52 52 50 48 47 42 38
32 33 33 32 31 31 30 30 30 30 29 29 31 32 35 36 37 37 35 34 36 38 40 43 46 49 51 53 57 61 61 63 64 65 68 67 66 62 61 59 57 54 53 48 45
32 33 32 31 30 30 30 30 30 29 30 31 34 36 36 37 36 35 35 36 38 40 43 48 50 52 55 58 61 65 67 67 70 73 74 75 73 72 68 66 64 61 57 53 49
29 29 29 30 29 29 29 29 29 29 30 31 31 32 33 34 34 36 38 40 44 47 51 53 55 56 58 62 64 68 71 75 77 81 83 84 84 80 76 71 71 67 63 58 53
29 28 28 30 32 32 32 31 32 32 32 32 31 32 35 35 37 40 43 46 49 54 56 56 57 59 62 65 68 73 77 82 85 86 87 86 89 89 84 79 78 72 67 62 58
30 30 32 33 34 34 35 36 36 36 35 34 33 34 35 39 41 45 48 51 54 55 57 58 59 61 63 68 73 77 81 78 70 57 57 61 65 80 88 88 85 79 70 64 61
31 30 31 33 35 36 37 37 38 37 36 36 36 37 40 42 45 49 51 51 53 55 57 58 60 63 65 70 73 72 60 45 40 47 51 54 59 58 65 78 87 83 73 65 63
30 31 32 34 36 38 38 37 37 38 37 39 40 42 44 44 48 48 50 53 55 57 57 59 61 63 67 68 63 46 41 39 37 43 47 50 47 43 47 66 77 79 75 66 63
30 33 34 35 37 40 40 41 40 39 40 41 41 43 44 49 49 50 51 53 54 55 57 59 61 63 61 55 46 41 34 34 37 39 40 40 38 31 37 54 70 75 73 66 64
32 32 34 37 38 39 40 43 43 42 41 42 44 46 50 48 50 51 53 52 54 56 58 59 60 54 45 41 38 31 32 38 39 37 39 39 37 32 33 44 61 65 69 65 64
34 35 36 38 40 41 42 43 45 45 43 44 44 49 46 49 52 52 51 52 54 56 57 58 52 41 36 37 30 34 39 37 31 31 30 26 33 28 31 42 56 60 65 65 64
39 40 41 42 42 43 44 45 45 45 45 44 50 45 49 50 49 49 51 53 54 54 56 51 40 31 28 32 32 37 29 22 16 19 22 22 20 20 26 31 59 57 50 53 56
43 42 43 43 44 44 44 44 45 46 45 50 44 47 47 46 47 50 52 52 53 55 52 43 29 24 27 27 33 22 22 13 15 16 17 20 8 9 15 25 62 47 54 45 59
44 47 47 46 44 44 44 45 45 45 46 39 43 43 44 46 48 50 52 52 52 52 47 35 25 21 24 31 22 17 10 11 14 20 13 5 2 9 11 25 47 51 51 36 48
44 46 47 48 49 46 44 43 43 43 41 40 39 40 42 44 47 50 49 51 51 49 42 26 18 20 21 20 15 14 8 12 13 15 13 10 7 7 15 30 34 54 55 34 31
45 46 45 46 44 42 41 40 37 35 35 35 37 40 43 46 47 51 51 50 48 43 34 20 14 17 16 17 14 15 13 14 10 18 6 11 1 11 21 25 26 52 57 35 32
42 43 44 40 37 37 33 31 32 30 32 38 38 43 47 49 50 50 51 51 48 41 24 17 13 16 16 15 8 12 15 12 13 12 11 7 9 13 22 28 20 39 55 42 22
42 41 39 37 35 29 29 29 30 30 34 40 42 49 50 50 50 52 52 50 45 35 24 13 12 13 16 9 10 9 13 14 11 12 13 13 13 10 15 25 25 33 45 42 34
39 40 36 34 31 28 30 32 35 36 39 41 45 49 50 51 52 51 50 48 45 34 21 12 12 13 14 8 8 6 9 12 8 6 8 8 3 15 18 22 21 30 35 39 39
36 33 31 30 30 29 33 36 37 37 41 44 46 50 51 53 51 49 49 46 41 33 17 15 11 9 10 9 6 6 7 8 11 8 5 6 8 12 12 16 21 22 21 26 30
27 26 26 26 30 32 34 34 38 40 42 44 48 49 51 50 48 47 46 41 35 22 19 15 12 12 8 8 5 6 5 6 10 8 8 8 5 8 16 16 18 18 21 24 30
22 24 25 27 31 33 36 39 42 43 43 46 47 49 48 48 46 45 43 41 35 19 16 14 11 10 9 7 5 3 3 2 7 8 6 8 14 10 10 14 14 15 26 16 29
24 25 25 27 32 35 37 40 41 42 43 43 45 46 48 45 45 45 43 40 32 12 13 13 12 8 11 6 4 3 2 0 3 5 8 7 9 10 9 8 9 11 12 10 33
28 29 30 29 32 36 38 39 38 40 40 40 42 44 44 43 43 43 40 37 27 8 10 12 12 10 9 7 3 6 3 3 2 4 5 6 9 8 9 9 10 10 10 12 15
31 32 33 34 36 39 37 36 37 36 37 39 40 41 41 40 41 39 37 33 22 7 8 13 14 10 7 7 6 7 3 3 3 4 6 5 7 7 7 7 8 10 12 12 13
34 36 37 38 40 36 34 33 33 34 36 37 38 38 39 39 38 38 34 31 21 7 10 16 17 8 8 7 6 7 3 1 1 5 6 8 8 8 7 7 8 11 13 16 17
38 39 40 37 36 33 33 33 32 34 35 36 36 36 36 38 37 37 33 28 17 7 11 16 16 9 7 7 7 8 6 5 5 2 7 10 8 9 10 9 8 11 14 18 21
Wind_Direction
312 313 312 312 313 312 311 310 309 308 306 303 298 300 303 304 302 298 298 299 298 294 294 294 294 293 293 291 288 287 285 281 281 279 277 274 268 263 259 258 253 252 250 246 243
314 314 315 315 313 312 313 310 307 305 304 301 299 301 300 301 301 300 300 299 297 297 297 296 295 295 293 290 289 286 282 280 278 276 275 273 271 261 256 253 252 248 247 245 243
315 312 314 314 313 314 314 312 308 306 304 300 300 301 300 301 303 302 301 299 299 299 299 298 296 295 293 291 288 286 284 281 278 276 273 271 266 261 254 251 250 248 245 242 240
324 318 317 316 317 319 318 318 316 314 311 308 307 306 307 307 307 305 302 302 304 305 305 303 300 296 293 290 287 285 284 282 280 278 273 267 264 258 250 245 250 246 244 241 237
329 325 323 322 323 324 323 321 318 315 312 311 312 313 311 309 309 307 305 305 307 307 304 302 299 297 293 290 290 289 287 286 281 279 276 270 264 257 249 243 244 243 241 240 238
332 332 330 328 327 325 325 323 320 317 314 313 313 315 313 311 309 308 308 307 306 305 303 301 299 297 295 295 295 293 288 290 287 281 273 268 258 248 245 237 239 241 237 235 233
338 336 334 332 332 332 328 323 321 319 317 315 315 317 315 313 311 311 309 308 305 304 304 302 302 301 299 300 300 298 295 289 291 283 279 271 263 256 246 235 230 233 232 230 229
339 337 334 332 331 329 329 328 325 322 319 317 318 317 315 314 314 312 309 309 308 308 308 308 306 306 308 306 305 304 296 292 292 291 281 274 266 260 246 231 226 226 226 222 225
335 332 330 329 328 327 326 326 326 325 323 320 320 318 317 317 317 316 313 311 312 312 312 311 313 313 313 311 310 304 298 296 290 293 287 275 271 259 248 230 218 220 220 215 216
330 329 327 326 325 325 324 324 324 321 320 320 320 318 321 320 318 316 316 317 317 315 316 320 319 318 311 311 312 306 304 310 304 298 286 275 269 259 248 234 213 211 211 207 212
324 323 325 326 327 324 322 323 322 322 320 321 320 320 323 321 320 322 321 319 318 322 325 325 322 317 312 315 313 315 311 310 315 304 306 290 272 267 243 224 197 198 201 200 208
324 324 322 323 324 324 324 324 325 323 323 322 322 323 323 323 326 325 324 325 327 329 329 327 322 314 317 321 312 311 315 320 330 343 332 316 303 259 236 213 186 189 199 194 196
320 322 322 321 322 321 324 323 322 323 323 324 327 326 326 329 330 330 330 330 332 332 331 328 325 317 326 322 322 322 324 334 314 332 334 332 313 223 200 195 188 179 189 188 196
320 319 321 322 321 322 322 322 322 323 324 329 329 331 334 335 334 337 337 336 334 333 334 332 324 329 331 333 341 343 353 333 347 4 349 295 152 164 180 176 174 191 171 177 200
316 316 320 320 320 323 323 325 326 327 331 333 336 337 335 338 339 340 339 338 336 337 335 333 330 335 332 352 12 16 356 349 11 360 6 3 86 160 163 167 177 175 174 172 191
318 316 317 319 321 324 327 329 332 335 339 341 339 340 342 340 340 341 341 340 340 339 336 326 330 338 337 354 4 4 1 359 3 4 29 356 165 155 165 163 167 180 175 175 189
317 316 318 321 326 327 331 336 337 340 339 340 341 342 342 343 343 342 343 342 342 343 335 322 324 332 338 349 20 2 1 360 357 6 0 36 152 161 151 169 180 188 195 188 198
316 317 318 321 325 330 332 336 337 337 339 342 342 342 343 344 344 343 344 343 343 344 342 329 316 327 336 330 352 20 11 11 13 25 37 60 127 152 199 166 183 194 201 211 201
315 315 317 321 326 331 331 336 340 339 339 339 342 343 343 344 342 342 344 343 343 347 341 336 321 325 340 338 336 353 344 10 2 357 31 49 107 157 147 161 167 192 207 205 209
311 312 320 324 324 328 329 333 337 337 339 340 341 341 341 340 341 342 344 344 342 343 345 346 333 319 332 352 327 321 343 21 16 21 73 78 138 181 191 196 186 180 187 210 219
309 315 320 322 327 332 336 336 339 341 339 340 338 338 338 339 341 342 343 344 342 340 347 346 343 335 328 347 330 341 347 47 47 52 107 125 117 143 173 181 184 197 198 195 204
314 316 318 318 327 332 336 337 336 336 336 337 337 337 337 339 341 342 342 343 341 337 344 344 343 343 338 323 338 330 3 83 61 91 110 150 128 138 156 180 188 186 193 200 196
311 312 318 318 324 329 331 331 331 334 333 336 336 339 338 341 343 343 343 344 340 335 352 358 352 344 359 358 345 308 309 26 118 91 91 155 143 149 162 183 196 199 201 204 192
305 309 313 318 318 322 326 329 332 332 334 335 338 338 340 343 344 343 342 343 342 346 357 356 350 346 350 0 354 0 296 208 177 163 121 114 145 156 164 184 194 198 201 197 203
303 309 310 315 320 322 327 330 330 329 331 335 338 340 344 345 344 341 340 344 346 339 357 355 347 336 321 335 342 310 349 241 252 214 205 185 178 175 174 176 179 189 196 199 211
304 306 309 312 317 322 324 325 324 325 329 335 338 342 345 344 344 342 341 345 346 318 329 336 338 315 326 310 324 324 319 293 18 216 204 214 216 215 223 236 238 233 228 222 224
302 304 307 314 316 320 319 320 320 323 328 335 337 343 347 344 343 343 340 344 344 328 328 329 336 316 297 305 306 316 281 282 258 263 222 213 208 218 226 235 258 253 241 234 235